User: anonymous   Login
Location: Carella
(45.8167°N, 9.2667°E)
Time: 11:27:18
(UTC+00:00)
Language:

BREEZE-M DEB (TANK) - Orbit

View from above orbital plane
View from above orbital plane
View from above satellite
View from above satellite

Ground track
Ground track

The orbit data is extracted from the following two-line orbital elements,

1 42751U 17032C   20184.76635100 +.00001407 +00000-0 +25721-3 0  9997
2 42751 049.7015 292.5472 4646014 207.1104 118.3496 06.20895409069468
Epoch (UTC): 02 July 2020 18:23:32
Eccentricity: 0.4646014
inclination: 49.7015°
perigee height: 316 km
apogee height: 11935 km
right ascension of ascending node: 292.5472°
argument of perigee: 207.1104°
revolutions per day: 6.20895409
mean anomaly at epoch: 118.3496°
orbit number at epoch: 6946

The dashed part of the orbit path shows where the satellite is in the earth's shadow,  

DLR